Location: Newark
(48.2308°N, 120.8549°W)
Time: 14:15:01
(UTC+00:00)

Transit 2A Rocket - Pass Details

Date: 02 June 2020
Orbit: 584 x 919 km, 66.7° (Epoch: 07 July)

Event Time Altitude Azimuth Distance (km) Brightness Sun altitude
Rises 07:28:00 0° 249° (WSW) 3,147 8.1 -19.1°
Reaches altitude 10° 07:30:32 10° 260° (W) 2,285 7.4 -19.2°
Maximum altitude 07:35:11 31° 322° (NW) 1,391 6.9 -19.3°
Drops below altitude 10° 07:40:14 10° 24° (NNE) 2,489 8.5 -19.3°
Sets 07:43:07 0° 34° (NE) 3,474 9.2 -19.4°
